DW4212 La Cabrera ES current weather conditions

sailwx.info

Wind from 017 at 4 knots gusting 12

Air temperature 11.1° C
Dewpoint -2.7° C

Last reported at 2017-Apr-27 13:59 UTC.
Time now 2017-Apr-27 14:48 UTC

Location: N 40°53' W 003°35'.
View on Google Maps.

See reports from other nearby stations

  
Tides and Currents Weather Stations Pressure Air Temp Water Temp Dewpoint Dewpoint Depression Visibility Wind Speed Wind Dir Waves Ship Positions
date/time (UTC)wind fromknots sea level pressurealtimeterstation pressurevisibilityair tempwater tempwave heightnotes
2017-Apr-27 14:29 325 2 gusting 9 10.6
2017-Apr-27 14:19 014 6 gusting 13 11.1
2017-Apr-27 14:09 342 3 gusting 8 11.1
2017-Apr-27 13:59 017 4 gusting 12 11.1
2017-Apr-27 13:49 345 3 gusting 11 11.1
2017-Apr-27 13:39 054 2 gusting 11 11.1
2017-Apr-27 13:29 005 2 gusting 7 11.1
2017-Apr-27 13:20 013 4 gusting 6 10.6
2017-Apr-27 13:09 005 4 gusting 8 10.0
2017-Apr-27 12:59 005 3 gusting 10 10.0
2017-Apr-27 12:49 011 3 10.0
2017-Apr-27 12:39 324 4 gusting 8 10.0
2017-Apr-27 12:29 335 2 gusting 9 9.4
2017-Apr-27 12:19 059 1 gusting 7 9.4
2017-Apr-27 12:09 331 3 gusting 8 10.0
2017-Apr-27 11:59 332 4 gusting 7 9.4
2017-Apr-27 11:49 019 1 gusting 9 9.4
2017-Apr-27 11:39 308 3 gusting 13 9.4
2017-Apr-27 11:29 298 1 gusting 11 8.9
2017-Apr-27 11:19 005 2 gusting 7 8.3
2017-Apr-27 10:49 331 3 gusting 6 8.3
2017-Apr-27 10:39 338 4 gusting 7 8.3
2017-Apr-27 10:29 360 2 gusting 6 8.3
2017-Apr-27 10:19 005 4 gusting 8 7.8
2017-Apr-27 10:09 053 1 gusting 8 7.8
2017-Apr-27 09:59 057 2 gusting 6 7.2
2017-Apr-27 09:49 025 4 gusting 7 6.7
2017-Apr-27 09:39 075 4 gusting 8 6.7
2017-Apr-27 09:29 346 4 gusting 8 6.7
2017-Apr-27 09:19 338 2 gusting 8 6.7
2017-Apr-27 09:09 055 1 gusting 7 6.1
2017-Apr-27 08:59 324 1 gusting 6 5.0
2017-Apr-27 08:49 055 2 gusting 7 4.4
2017-Apr-27 08:39 331 1 gusting 6 5.0
2017-Apr-27 08:29 053 1 gusting 10 3.9
2017-Apr-27 08:19 351 3 gusting 11 3.3
2017-Apr-27 08:09 013 4 gusting 11 3.3
2017-Apr-27 07:59 010 3 gusting 12 3.3
2017-Apr-27 07:49 338 4 gusting 10 3.9
2017-Apr-27 07:39 355 4 gusting 7 4.4
2017-Apr-27 07:29 059 1 gusting 6 3.9
2017-Apr-27 07:19 036 0 gusting 6 3.3
2017-Apr-27 07:09 329 1 gusting 5 3.9
2017-Apr-27 06:59 005 0 gusting 4 3.3
2017-Apr-27 06:49 360 1 gusting 4 2.8
2017-Apr-27 06:39 005 4 gusting 9 2.2
2017-Apr-27 06:29 342 5 gusting 8 1.7
2017-Apr-27 06:19 017 5 gusting 9 1.1
2017-Apr-27 06:09 342 4 gusting 9 1.1
2017-Apr-27 05:59 331 5 gusting 9 1.7
2017-Apr-27 05:49 355 5 gusting 10 1.1
2017-Apr-27 05:39 017 2 gusting 11 1.1
2017-Apr-27 05:29 323 0 gusting 6 1.1
2017-Apr-27 05:19 323 2 gusting 7 1.1
2017-Apr-27 05:09 325 1 gusting 8 1.1
2017-Apr-27 04:59 349 3 gusting 6 1.1
2017-Apr-27 04:49 327 3 gusting 6 1.1
2017-Apr-27 04:39 333 2 gusting 7 1.1
2017-Apr-27 04:29 331 3 gusting 6 1.1
2017-Apr-27 04:19 327 1 gusting 5 1.1
2017-Apr-27 04:09 348 2 gusting 4 1.1
2017-Apr-27 03:59 018 1 gusting 6 1.7
2017-Apr-27 03:49 360 1 gusting 6 1.7
2017-Apr-27 03:40 348 1 gusting 6 2.2
2017-Apr-27 03:29 347 2 gusting 6 2.2
2017-Apr-27 03:19 061 0 gusting 2 2.8
2017-Apr-27 03:09 063 2.8
2017-Apr-27 02:59 063 2.8
2017-Apr-27 02:49 063 2.8
2017-Apr-27 02:39 063 0 gusting 3 2.8
2017-Apr-27 02:29 063 2.8
2017-Apr-27 02:19 063 0 gusting 3 2.8
2017-Apr-27 02:09 063 2.8
2017-Apr-27 01:59 063 2.8
2017-Apr-27 01:49 063 3.9
2017-Apr-27 01:39 063 3.3
2017-Apr-27 01:29 063 3.9
2017-Apr-27 01:19 063 3.9
2017-Apr-27 01:09 063 3.9
2017-Apr-27 00:59 063 3.9
2017-Apr-27 00:49 063 3.9
2017-Apr-27 00:39 068 3.9
2017-Apr-27 00:29 068 4.4
2017-Apr-27 00:20 068 3.9
2017-Apr-27 00:09 068 3.9
2017-Apr-26 23:59 068 0 gusting 2 3.9
2017-Apr-26 23:49 068 3.9
2017-Apr-26 23:39 069 4.4
2017-Apr-26 23:19 069 4.4
2017-Apr-26 23:09 069 5.0
2017-Apr-26 22:59 065 5.0
2017-Apr-26 22:49 065 4.4
2017-Apr-26 22:39 065 4.4
2017-Apr-26 22:29 065 4.4
2017-Apr-26 22:19 065 284 gusting 284 4.4
2017-Apr-26 22:09 065 4.4
2017-Apr-26 21:59 065 5.0
2017-Apr-26 21:49 065 5.6
2017-Apr-26 21:39 065 0 gusting 6 5.6
2017-Apr-26 21:29 065 0 gusting 6 5.6
2017-Apr-26 21:19 059 0 gusting 6 5.6
2017-Apr-26 21:09 042 6.1
2017-Apr-26 20:59 049 6.1
2017-Apr-26 20:49 049 6.1
2017-Apr-26 20:39 032 2 gusting 7 6.1
2017-Apr-26 20:29 040 3 gusting 6 6.1
2017-Apr-26 20:19 350 4 gusting 8 6.1
2017-Apr-26 20:10 345 1 gusting 8 6.1
2017-Apr-26 19:59 005 4 gusting 7 6.1
2017-Apr-26 19:49 012 4 gusting 9 6.1
2017-Apr-26 19:39 350 5 gusting 12 6.1
2017-Apr-26 19:29 011 2 gusting 10 6.1
2017-Apr-26 19:19 059 2 gusting 6 6.7
2017-Apr-26 19:09 360 1 gusting 10 6.7
2017-Apr-26 18:59 034 1 gusting 9 6.7
2017-Apr-26 18:49 355 3 gusting 13 7.2
2017-Apr-26 18:39 355 6 gusting 14 7.8
2017-Apr-26 18:29 011 3 gusting 13 7.8
2017-Apr-26 18:19 319 6 gusting 13 8.3
2017-Apr-26 18:09 013 4 gusting 10 8.9
2017-Apr-26 17:59 005 3 gusting 8 8.9
2017-Apr-26 17:49 344 3 gusting 10 9.4
2017-Apr-26 17:39 061 3 gusting 10 9.4
2017-Apr-26 17:29 005 1 gusting 6 10.0
2017-Apr-26 17:19 355 3 gusting 11 10.0
2017-Apr-26 17:09 023 4 gusting 11 10.6
2017-Apr-26 16:59 070 3 gusting 10 11.1
2017-Apr-26 16:49 063 3 gusting 10 11.1
2017-Apr-26 16:39 011 3 gusting 9 11.1
2017-Apr-26 16:29 053 5 gusting 12 11.7
2017-Apr-26 16:19 005 0 gusting 9 11.7
2017-Apr-26 16:09 321 4 gusting 9 12.8
2017-Apr-26 15:49 028 12.2
2017-Apr-26 15:39 065 3 gusting 8 12.2
2017-Apr-26 15:29 064 1 gusting 7 13.3
2017-Apr-26 15:19 024 1 gusting 5 13.9
2017-Apr-26 15:09 058 1 gusting 9 13.9
2017-Apr-26 14:59 032 0 gusting 6 13.9
2017-Apr-26 14:49 340 2 gusting 6 13.9
2017-Apr-26 14:39 044 3 gusting 6 13.3
2017-Apr-26 14:29 345 2 gusting 11 13.3
2017-Apr-26 14:19 350 3 gusting 11 13.3
2017-Apr-26 14:09 031 3 gusting 8 13.9
2017-Apr-26 13:59 333 4 gusting 8 13.3
2017-Apr-26 13:49 355 1 gusting 6 12.8
2017-Apr-26 13:39 010 3 gusting 10 13.3
2017-Apr-26 13:29 355 5 gusting 8 13.3
2017-Apr-26 13:19 015 3 gusting 11 12.8
2017-Apr-26 13:09 316 3 gusting 7 12.8
2017-Apr-26 12:59 320 5 gusting 8 13.3
2017-Apr-26 12:49 015 3 gusting 10 12.8
2017-Apr-26 12:39 316 4 gusting 6 12.2
2017-Apr-26 12:29 049 2 gusting 6 12.2
2017-Apr-26 12:19 050 4 gusting 9 12.2
2017-Apr-26 12:09 048 3 gusting 10 12.2
2017-Apr-26 11:59 029 2 gusting 7 12.8
2017-Apr-26 11:49 058 1 gusting 5 12.8
2017-Apr-26 11:39 065 1 gusting 6 12.2
2017-Apr-26 11:29 076 0 gusting 8 11.7
2017-Apr-26 11:19 360 1 gusting 5 11.7
2017-Apr-26 11:09 067 2 gusting 8 12.2
2017-Apr-26 10:59 011 2 gusting 6 12.8
2017-Apr-26 10:49 340 1 gusting 6 13.3
2017-Apr-26 10:39 049 0 gusting 7 12.2
2017-Apr-26 10:29 043 0 gusting 6 12.8
2017-Apr-26 10:19 027 3 gusting 6 12.8
2017-Apr-26 10:09 061 3 gusting 8 11.7
2017-Apr-26 09:59 037 0 gusting 6 11.7
2017-Apr-26 09:49 061 2 gusting 6 11.7
2017-Apr-26 09:39 059 0 gusting 6 11.1
2017-Apr-26 09:29 031 1 gusting 5 11.7
2017-Apr-26 09:19 051 1 gusting 5 11.7
2017-Apr-26 09:09 059 1 gusting 4 11.7
2017-Apr-26 08:59 057 2 gusting 4 11.1
2017-Apr-26 08:39 049 0 gusting 4 10.0
2017-Apr-26 08:29 058 0 gusting 6 10.0
2017-Apr-26 08:19 060 0 gusting 5 9.4
2017-Apr-26 08:09 040 0 gusting 4 9.4
2017-Apr-26 07:59 031 0 gusting 4 8.3
2017-Apr-26 07:49 005 1 gusting 5 8.3
2017-Apr-26 07:39 065 0 gusting 5 8.3
2017-Apr-26 07:29 010 0 gusting 6 7.8
2017-Apr-26 07:19 013 2 gusting 7 7.8
2017-Apr-26 07:09 346 2 gusting 6 7.2
2017-Apr-26 06:59 355 3 gusting 7 7.2
2017-Apr-26 06:49 005 4 gusting 9 7.2
2017-Apr-26 06:39 013 3 gusting 7 6.7
2017-Apr-26 06:29 005 3 gusting 8 6.7
2017-Apr-26 06:19 355 3 gusting 6 7.2
2017-Apr-26 06:09 005 3 gusting 6 7.2
2017-Apr-26 05:59 005 2 gusting 7 7.2
2017-Apr-26 05:49 335 2 gusting 6 7.2
2017-Apr-26 05:39 025 3 gusting 5 7.2
2017-Apr-26 05:29 015 1 gusting 6 7.8
2017-Apr-26 05:19 355 1 gusting 6 7.8
2017-Apr-26 05:09 360 0 gusting 5 7.8
2017-Apr-26 04:59 347 2 gusting 5 7.8
2017-Apr-26 04:49 360 1 gusting 5 7.8
2017-Apr-26 04:39 321 0 gusting 2 7.8
2017-Apr-26 04:19 323 7.8
2017-Apr-26 04:09 323 7.8
2017-Apr-26 03:59 323 7.8
2017-Apr-26 03:49 323 8.3
2017-Apr-26 03:39 323 8.3
2017-Apr-26 03:29 321 8.9
2017-Apr-26 03:19 321 0 gusting 3 8.9
2017-Apr-26 03:09 328 2 gusting 6 8.9
2017-Apr-26 02:49 355 2 gusting 8 9.4
2017-Apr-26 02:39 350 2 gusting 8 9.4
2017-Apr-26 02:29 355 4 gusting 8 9.4
2017-Apr-26 02:19 334 5 gusting 8 9.4
2017-Apr-26 02:09 311 5 gusting 12 9.4
2017-Apr-26 01:59 344 4 gusting 11 9.4
2017-Apr-26 01:49 318 5 gusting 10 9.4
2017-Apr-26 01:39 323 6 gusting 13 10.0
2017-Apr-26 01:29 330 3 gusting 12 10.0
2017-Apr-26 01:19 336 5 gusting 11 10.0
2017-Apr-26 01:09 355 4 gusting 9 10.0
2017-Apr-26 00:49 337 6 gusting 13 10.0
2017-Apr-26 00:39 347 4 gusting 13 10.0
2017-Apr-26 00:29 328 6 gusting 11 10.0
2017-Apr-26 00:19 313 4 gusting 12 10.0
2017-Apr-26 00:09 338 5 gusting 10 10.0
2017-Apr-25 23:59 333 3 gusting 11 10.0
2017-Apr-25 23:49 319 7 gusting 15 10.0
2017-Apr-25 23:39 015 7 gusting 16 10.0
2017-Apr-25 23:29 323 5 gusting 13 10.6
2017-Apr-25 23:19 304 3 gusting 13 10.6
2017-Apr-25 23:09 311 6 gusting 12 10.6
2017-Apr-25 22:59 318 3 gusting 12 10.6
2017-Apr-25 22:49 309 5 gusting 13 11.1
2017-Apr-25 22:39 295 3 gusting 13 11.1
2017-Apr-25 22:29 311 7 gusting 15 11.1
2017-Apr-25 22:19 312 4 gusting 13 11.1
2017-Apr-25 22:09 329 6 gusting 15 11.1
2017-Apr-25 21:59 345 7 gusting 14 11.1
2017-Apr-25 21:49 328 2 gusting 11 11.1
2017-Apr-25 21:39 317 3 gusting 12 11.1
2017-Apr-25 21:29 061 10.6
2017-Apr-25 21:19 061 0 gusting 6 10.6
2017-Apr-25 21:09 071 0 gusting 6 11.1
2017-Apr-25 20:59 065 1 gusting 6 11.7
2017-Apr-25 20:39 319 2 gusting 6 12.2
2017-Apr-25 20:29 319 2 gusting 5 12.2
2017-Apr-25 20:19 301 12.2
2017-Apr-25 20:09 300 2 gusting 9 11.7
2017-Apr-25 19:59 252 11.7
2017-Apr-25 19:49 256 1 gusting 6 11.7
2017-Apr-25 19:39 253 1 gusting 3 11.1
2017-Apr-25 19:29 252 0 gusting 6 11.1
2017-Apr-25 19:19 260 11.7
2017-Apr-25 19:09 240 11.7
2017-Apr-25 18:59 247 1 gusting 6 11.7
2017-Apr-25 18:49 236 0 gusting 3 11.7
2017-Apr-25 18:39 223 11.7
2017-Apr-25 18:29 229 0 gusting 3 11.7
2017-Apr-25 18:19 225 11.7
2017-Apr-25 18:09 227 11.7
2017-Apr-25 17:59 229 11.7
2017-Apr-25 17:49 250 11.7
2017-Apr-25 17:39 259 1 gusting 6 11.7
2017-Apr-25 17:29 244 0 gusting 3 12.2
2017-Apr-25 17:19 247 12.2
2017-Apr-25 17:09 257 1 gusting 9 12.2
2017-Apr-25 16:59 350 12.2
2017-Apr-25 16:49 351 0 gusting 6 11.7
2017-Apr-25 16:39 252 12.2
2017-Apr-25 16:29 252 12.2
2017-Apr-25 16:19 252 12.2
2017-Apr-25 16:09 257 0 gusting 3 12.2
2017-Apr-25 15:59 258 12.2
2017-Apr-25 15:49 269 1 gusting 7 12.2
2017-Apr-25 15:39 331 4 gusting 10 12.2
2017-Apr-25 15:29 360 5 gusting 9 12.2
2017-Apr-25 15:19 336 3 gusting 8 12.2
2017-Apr-25 15:09 343 3 gusting 6 12.2
2017-Apr-25 14:59 343 2 gusting 8 11.7
2017-Apr-25 14:29 360 4 gusting 6 12.2
2017-Apr-25 14:19 074 0 gusting 3 12.2
2017-Apr-25 14:09 329 0 gusting 5 12.8